Simultaneous Nadir Overpasses (SNOs) Predictions

Prediction of SNOs between GOES-17 and NOAA-19 Satellite Orbit:

Table of predicted SNOs for the next 14.0 days since TLE Epoch: 10/12/2024
Index Date Time (GOES-17) GOES-17 Lat,Lon NOAA-19 Lat,Lon Distance(km) Time Diff (sec)
1 10/13/2024 04:40:24 0.00,-104.71 -0.70,-107.72 344.16 80
2 10/14/2024 04:27:58 0.00,-104.72 -0.02,-104.70 3.33 80
3 10/15/2024 04:12:54 0.00,-104.72 0.72,-101.69 346.40 80
4 10/17/2024 16:32:01 -0.01,-104.80 0.35,-106.24 165.54 80
5 10/18/2024 16:22:15 -0.01,-104.81 -0.35,-103.23 179.94 80
6 10/21/2024 04:41:21 0.00,-104.77 -0.72,-107.77 343.17 80
7 10/22/2024 04:26:15 -0.01,-104.78 0.01,-104.76 3.03 80
8 10/23/2024 04:13:49 -0.01,-104.78 0.70,-101.73 348.11 80
9 10/25/2024 16:32:55 0.02,-104.85 0.35,-106.28 163.50 80
